This is the latest recevied weather packets stored in our database for station/object LY3FF-10. If no packets are shown the sender has not sent any weather packets the latest 10 day(s).
| Time | Temp. | Humidity | Pressure | Rain* | Wind** | Luminosity | Snow |
|---|---|---|---|---|---|---|---|
| 1788093596 | 32.78° C | 61% | 994.8 hPa | - | - | - | - |
| 1788092724 | 23.89° C | 62% | 994.8 hPa | - | - | - | - |
| 1788091947 | 33.33° C | 63% | 995 hPa | - | - | - | - |
| 1788091170 | 33.89° C | 62% | 995 hPa | - | - | - | - |
| 1788090370 | 23.33° C | 65% | 995.1 hPa | - | - | - | - |
| 1788089484 | 37.78° C | 67% | 995.1 hPa | - | - | - | - |
| 1788088588 | 22.78° C | 67% | 995.2 hPa | - | - | - | - |
| 1788087831 | 22.78° C | 69% | 995.4 hPa | - | - | - | - |
| 1788087024 | 22.22° C | 69% | 995.4 hPa | - | - | - | - |
| 1788086204 | 36.11° C | 71% | 995.3 hPa | - | - | - | - |
| 1788085450 | 34.44° C | 73% | 995.3 hPa | - | - | - | - |
| 1788084650 | 33.33° C | 73% | 995.4 hPa | - | - | - | - |
| 1788083815 | 32.22° C | 74% | 995.3 hPa | - | - | - | - |
| 1788082964 | 30.56° C | 75% | 995.4 hPa | - | - | - | - |
| 1788082190 | 25.56° C | 75% | 995.4 hPa | - | - | - | - |
| 1788081400 | 22.22° C | 16% | - | - | - | - | - |
| 1788080635 | 21.11° C | 77% | 995.5 hPa | - | - | - | - |
| 1788079735 | 20° C | 78% | 995.1 hPa | - | - | - | - |
| 1788078840 | 18.33° C | 79% | 995.1 hPa | - | - | - | - |
| 1788078084 | 18.33° C | 80% | 995.2 hPa | - | - | - | - |
| 1788077230 | 18.33° C | 80% | 995.1 hPa | - | - | - | - |
| 1788076504 | 17.78° C | 80% | 995.2 hPa | - | - | - | - |
| 1788075605 | 17.78° C | 81% | 995.2 hPa | - | - | - | - |
| 1788074735 | 17.78° C | 81% | 995.2 hPa | - | - | - | - |
| 1788074010 | 17.22° C | 82% | 995.1 hPa | - | - | - | - |
* Rain since midnight (hover to see other rain measurements)
** Current wind speed in m/s (hover to see current wind gust speed)